Regional Weather Roundup
Issued by NWS

Home | Current Version | Previous Version | Text Only | Print | Product List | Glossary On
Versions: 1 2 3 4 5 6 7 8 9 10 11 12 13 14 15 16 17 18 19 20 21 22 23 24 25 26 27 28 29 30 31 32 33 34 35 36 37 38 39 40 41 42 43 44 45 46 47 48 49 50
000
ASUS43 KDMX 202106
RWRIA

WEATHER ROUNDUP FOR IOWA
NATIONAL WEATHER SERVICE DES MOINES IA
300 PM CST SAT JAN 20 2018

NOTE: "FAIR" INDICATES FEW OR NO CLOUDS BELOW 12,000 FEET WITH NO
SIGNIFICANT WEATHER AND/OR OBSTRUCTIONS TO VISIBILITY.

* - THESE STATIONS ARE NOT NWS STATIONS...THUS NOT UNDER NWS
QUALITY CONTROL.  THEY ALSO DO NOT REPORT WEATHER SUCH
AS PRECIPITATION OR FOG.

IAZ001>003-012>014-020>022-031>034-043>046-202200-
   NORTHWEST IOWA

CITY           SKY/WX    TMP DP  RH WIND       PRES   REMARKS
CARROLL *      SUNNY     50  36  57 VRB5      29.84R
CHEROKEE *     MOSUNNY   54  32  43 NE6       29.84R
DENISON *      SUNNY     50  34  53 E7        29.84R
LE MARS *      PTSUNNY   52  34  50 N12       29.84R
ORANGE CITY *  PTSUNNY   48  36  61 NE5       29.84S
SHELDON *      MOSUNNY   46  37  71 N7        29.83F
SIOUX CITY     SUNNY     56  31  38 NE9       29.83R
SPENCER        CLOUDY    49  34  56 NE7       29.84F
STORM LAKE *   SUNNY     52  34  50 NE9       29.83S
$$

IAZ055>058-069>071-079>083-090>094-202200-
   SOUTHWEST IOWA

CITY           SKY/WX    TMP DP  RH WIND       PRES   REMARKS
ATLANTIC *     SUNNY     46  39  76 S8        29.84R
AUDUBON *      SUNNY     48  36  61 CALM      29.85R
CLARINDA *     CLOUDY    46  45  93 CALM        N/A
COUNCIL BLFS * SUNNY     46  41  81 SE5       29.82S
CRESTON *      CLOUDY    46  41  81 SW3       29.86R
HARLAN  *      SUNNY     45  34  65 SW6       29.86S
LAMONI         CLOUDY    49  42  77 SE3       29.85R
RED OAK *      MOSUNNY   48  41  76 S7        29.84R
SHENANDOAH *   CLOUDY    45  41  87 NE7       29.84S
$$

IAZ047>049-059>061-072>074-084-202200-
   CENTRAL IOWA

CITY           SKY/WX    TMP DP  RH WIND       PRES   REMARKS
AMES           SUNNY     47  36  65 SE5       29.84F
ANKENY *       SUNNY     48  34  57 SE5       29.86S
BOONE *        SUNNY     48  36  61 E7        29.83S
CHARITON *     CLOUDY    46  41  81 SW5       29.86R
DES MOINES     MOSUNNY   45  38  76 SW10      29.87R
GRINNELL*      SUNNY     45  37  75 SW8       29.88R
KNOXVILLE *    CLOUDY    45  39  81 W6        29.86R
MARSHALLTOWN   SUNNY     48  34  58 E3        29.85S
NEWTON *       SUNNY     46  37  71 S8        29.86R
PELLA *        CLOUDY    45  38  78 SW5       29.89R
PERRY *          N/A     49  33  56 SE6       29.84S
$$

IAZ004>006-015-016-023>025-035-036-202200-
   NORTH CENTRAL IOWA

CITY           SKY/WX    TMP DP  RH WIND       PRES   REMARKS
ALGONA *       MOSUNNY   50 N/A N/A NE6       29.86R
CLARION *      SUNNY     52  37  58 CALM      29.85S
ESTHERVILLE    CLOUDY    45  34  65 N5        29.85F
FORT DODGE *   SUNNY     48  36  63 NE6       29.85S
MASON CITY     SUNNY     51  33  50 E3        29.87R
FOREST CITY *    N/A     50  34  53 N5        29.86R
WEBSTER CITY * SUNNY     48  36  61 VRB5      29.83R
IOWA FALLS *     N/A     50  37  61 E3        29.86S
$$

IAZ007>011-017>019-026>030-037>042-050>054-066-202200-
   NORTHEAST IOWA

CITY           SKY/WX    TMP DP  RH WIND       PRES   REMARKS
CEDAR RAPIDS     N/A     49  35  58 SW6       29.87S
CHARLES CITY *   N/A     48  34  57 CALM      29.86S
CLINTON *        N/A     47  36  65 W10       29.91R
DECORAH *        N/A     48  34  57 CALM      29.85S
DUBUQUE          N/A     46  31  55 S3        29.88S
MONTICELLO *     N/A     48  32  53 SW5       29.88R
OELWEIN *        N/A     48  39  71 SE5       29.86F
WATERLOO         N/A     49  32  52 SE5       29.85F
$$

IAZ064-065-067-068-078-202200-
   EAST CENTRAL IOWA

CITY           SKY/WX    TMP DP  RH WIND       PRES   REMARKS
DAVENPORT        N/A     45  36  70 SW8       29.93R HAZE
IOWA CITY        N/A     45  36  70 SW9       29.91R
MT. PLEASANT * CLOUDY    45  37  76 W3        29.90S
MUSCATINE *    CLOUDY    45  37  76 SW3       29.92R
QUAD CITIES    PTSUNNY   44  37  76 SW10      29.91R
$$

IAZ062-063-075>077-085>089-095>099-202200-
   SOUTHEAST IOWA

CITY           SKY/WX    TMP DP  RH WIND       PRES   REMARKS
BURLINGTON     CLOUDY    47  39  74 CALM      29.90S
FAIRFIELD *    CLOUDY    46  39  76 CALM      29.88S
FORT MADISON * CLOUDY    48  41  76 S3        29.91R
KEOKUK *       CLOUDY    50  43  76 S6        29.90R
OSKALOOSA *      N/A     46  39  78 SW7       29.87S
OTTUMWA        CLOUDY    48  38  68 W3        29.87F
WASHINGTON *   CLOUDY    45  41  87 W6        29.91S
$$

ABBREVIATIONS USED IN REMARKS
   TC - TEMPERATURES IN CELSIUS
  WCI - WIND CHILL INDEX
   HX - HEAT INDEX
  VSB - VISIBILITY
$$





USA.gov is the U.S. government's official web portal to all federal, state and local government web resources and services.